Location: *
(49.1466°N, 1.6216°E)
Time: 18:05:07
(UTC+00:00)

In-Cosmos 22 - Pass Details

Date: 25 September 2023
Orbit: 785 x 875 km, 81.2° (Epoch: 11 December)

Event Time Altitude Azimuth Distance (km) Brightness Sun altitude
Rises 18:26:17 0° 347° (NNW) 3,375 7.6 -7.4°
Reaches altitude 10° 18:28:43 10° 346° (NNW) 2,424 6.9 -7.8°
Maximum altitude 18:34:11 81° 261° (W) 821 4.3 -8.7°
Drops below altitude 10° 18:39:30 10° 174° (S) 2,356 6.4 -9.6°
Sets 18:41:50 0° 174° (S) 3,274 7.1 -10.0°
